Location: El Bakhil
(32.7726°N, 5.5387°W)
Time: 03:59:19
(UTC+00:00)

SeaSat 1 - Pass Details

Date: 03 March 2021
Orbit: 744 x 747 km, 108.0° (Epoch: 12 April)

Event Time Altitude Azimuth Distance (km) Brightness Sun altitude
Rises 19:38:03 0° 16° (NNE) 3,194 5.6 -17.0°
Reaches altitude 10° 19:40:24 10° 10° (N) 2,267 4.9 -17.5°
Maximum altitude 19:45:04 45° 299° (WNW) 1,016 3.6 -18.4°
Drops below altitude 10° 19:49:44 10° 227° (SW) 2,257 5.5 -19.4°
Sets 19:52:04 0° 221° (SW) 3,177 6.2 -19.9°
